Terminal Aerodrome Forecast
Issued by NWS

Home | Current Version | Previous Version | Text Only | Print | Product List | Glossary On
Versions: 1 2 3 4 5 6 7 8 9 10 11 12 13 14 15 16
000
FTUS43 KFGF 191400 AAB
TAFDVL
TAF AMD
KDVL 191459Z 1915/2012 17008KT 2SM BR OVC003
      TEMPO 1915/1917 1/2SM FG
     FM191800 18008KT P6SM OVC012
      AMD LTD TO CLD VIS AND WIND=

USA.gov is the U.S. government's official web portal to all federal, state and local government web resources and services.